                ,  0.671,  0.819,  0.966,  1.114,  1.262,  1.410,  1.558,  1.705,  1.853,  2.001,  2.149,  2.297,  2.445,  2.592,  2.740,  2.888,  3.036,  3.184,  3.331,  3.479,  3.627,  3.775,  3.923,  4.070,  4.218,  4.366,  4.514,  4.662,  4.809,  4.957,  5.105,  5.253
2000/05/12 00:00,  999.0,  999.0,  999.0,  999.0,  999.0,  999.0,  999.0,  999.0,  999.0,  999.0,  999.0,  999.0,  999.0,  999.0,  999.0,  999.0,  999.0,  999.0,  999.0,  999.0,  999.0,  999.0,  999.0,  999.0,  999.0,  999.0,  999.0,  999.0,  999.0,  999.0,  999.0,  999.0
2000/05/12 00:10,  999.0,   -6.2,   -7.1,   -8.4,   -9.9,   -9.1,   -8.8,   -6.6,   -6.9,   -5.3,   -3.6,   -3.0,  999.0,    4.8,  999.0,   10.2,  999.0,    9.3,  999.0,   10.6,   10.4,   10.6,   11.0,  999.0,  999.0,  999.0,  999.0,  999.0,  999.0,  999.0,  999.0,  999.0
2000/05/12 00:20,   -3.0,   -5.8,   -6.1,   -8.4,   -8.8,   -9.1,   -8.5,   -7.5,   -5.8,   -4.3,   -3.3,    1.5,    2.0,    5.5,    9.5,    9.4,    9.8,    9.8,    8.6,    9.7,    8.0,    9.3,    9.8,   10.9,   12.8,  999.0,  999.0,  999.0,  999.0,  999.0,   15.6,  999.0
2000/05/12 00:30,  999.0,   -5.7,   -6.5,   -7.3,   -8.7,   -8.6,   -9.1,   -6.9,   -5.4,  999.0,   -1.1,    1.8,    4.6,  999.0,  999.0,  999.0,    8.1,    8.8,    6.0,    8.5,    9.1,    8.3,    8.4,  999.0,  999.0,  999.0,  999.0,  999.0,  999.0,  999.0,  999.0,  999.0
2000/05/12 00:40,  999.0,  999.0,   -6.9,   -7.6,   -8.4,   -9.0,   -9.4,   -7.4,   -5.0,   -3.9,   -2.1,  999.0,    3.3,  999.0,  999.0,  999.0,    9.8,   10.8,  999.0,   10.3,    9.5,    8.8,    8.7,    9.4,   11.3,  999.0,  999.0,  999.0,  999.0,  999.0,  999.0,  999.0
2000/05/12 00:50,   -2.9,   -5.5,   -7.3,   -8.6,   -7.4,   -8.0,   -8.6,   -6.5,   -5.7,   -3.3,    0.6,    0.7,    3.5,    6.7,    8.4,    8.7,  999.0,   12.2,   12.2,   11.4,   11.8,   11.4,   10.3,   10.3,   11.0,   10.5,  999.0,  999.0,  999.0,  999.0,  999.0,  999.0
2000/05/12 01:00,   -2.0,   -4.6,   -6.1,   -7.1,   -6.8,   -7.3,   -4.7,   -5.3,   -4.4,   -3.8,   -1.2,    1.9,    4.7,    7.0,    7.4,    9.8,   11.1,   12.1,   11.6,   10.9,   11.3,    9.9,   11.1,   10.3,   11.6,  999.0,  999.0,  999.0,  999.0,  999.0,  999.0,  999.0
2000/05/12 01:10,   -3.1,   -6.2,   -6.6,   -7.6,   -8.8,   -6.1,   -5.8,   -5.6,   -4.8,   -3.7,  999.0,    0.1,    2.8,  999.0,    8.4,    8.0,   11.2,   10.1,   10.6,   10.5,   11.3,   10.8,    9.2,    9.9,   10.8,   11.0,  999.0,  999.0,  999.0,  999.0,  999.0,  999.0
2000/05/12 01:20,   -3.7,   -6.5,   -6.5,   -8.1,   -8.3,   -7.1,   -5.1,   -6.9,   -4.7,   -3.4,   -0.4,    2.0,  999.0,    6.3,    5.7,    7.0,  999.0,   11.6,   12.3,   12.2,    9.4,    8.9,    9.7,   10.6,   12.7,  999.0,  999.0,  999.0,  999.0,  999.0,  999.0,  999.0
2000/05/12 01:30,   -4.0,   -5.3,   -6.0,   -5.7,   -6.4,   -6.9,   -6.8,  999.0,  999.0,   -3.8,  999.0,    3.1,  999.0,    3.4,    5.1,    7.8,  999.0,  999.0,    9.6,    9.9,   10.7,   10.8,   12.0,   13.4,   13.7,  999.0,  999.0,  999.0,  999.0,  999.0,  999.0,  999.0
2000/05/12 01:40,  999.0,   -3.9,   -5.9,   -6.5,   -7.9,  999.0,   -6.5,  999.0,   -3.9,  999.0,    0.9,  999.0,  999.0,  999.0,  999.0,  999.0,    8.2,    9.1,    9.5,   11.2,   10.8,   10.9,   11.6,   13.8,   14.7,   15.0,  999.0,  999.0,  999.0,  999.0,  999.0,  999.0
2000/05/12 01:50,   -2.8,   -4.1,   -3.9,  999.0,  999.0,   -6.4,   -3.3,   -2.7,   -4.9,   -5.4,   -0.6,   -5.5,   -0.7,   -0.8,    6.7,    7.9,    7.6,    8.5,    9.8,    8.7,    9.1,   11.3,   11.1,   12.1,   12.7,   14.9,   15.4,   16.3,  999.0,  999.0,  999.0,  999.0
2000/05/12 02:00,    1.7,   -3.8,  999.0,   -4.7,   -3.6,   -6.7,   -5.9,   -4.5,   -2.9,   -2.9,   -2.5,   -1.7,    0.1,    4.2,  999.0,    7.2,    7.3,    8.2,    8.6,    9.7,    9.3,  999.0,    9.9,   10.4,   10.8,   11.1,   12.4,   13.4,  999.0,  999.0,  999.0,  999.0
2000/05/12 02:10,   -2.7,   -4.2,   -4.7,   -5.6,    1.2,   -5.9,   -5.9,   -3.6,   -2.3,   -1.9,   -5.4,   -4.1,   -2.2,    6.1,    6.7,    8.1,    8.3,    9.8,    9.9,   10.5,    8.8,    9.5,    9.4,    9.3,  999.0,    9.5,   10.3,   13.5,   13.6,  999.0,  999.0,  999.0
2000/05/12 02:20,   -2.2,   -1.8,   -4.5,   -3.1,   -4.8,   -4.0,   -5.9,   -7.4,   -6.2,   -2.4,   -0.1,   -2.3,    1.6,    4.9,    8.9,   10.2,   13.5,   13.8,   13.2,   11.9,   11.5,   11.0,    9.5,    9.4,   11.3,   11.0,   12.1,   14.2,   15.8,  999.0,  999.0,  999.0
2000/05/12 02:30,   -2.3,   -2.6,   -2.9,   -1.3,   -4.4,   -4.7,   -3.7,   -7.2,   -5.0,   -5.3,   -2.8,    2.3,    6.6,    7.3,    6.1,    8.8,    9.2,   11.9,   10.8,  999.0,    9.1,   12.7,   10.4,    9.3,    9.7,   11.5,   12.4,   14.9,  999.0,  999.0,  999.0,  999.0
2000/05/12 02:40,   -2.1,   -3.3,   -2.5,   -2.1,   -0.9,   -3.2,   -2.3,   -2.6,   -1.7,    2.8,    4.1,    5.3,    6.5,    6.9,    6.6,    8.9,    9.7,   10.0,   10.8,   11.0,   10.2,    9.6,    9.6,    9.9,   10.0,   10.7,   11.7,   13.6,   16.7,  999.0,  999.0,  999.0
2000/05/12 02:50,  999.0,   -3.9,   -2.9,  999.0,   -3.2,   -3.2,   -4.8,    0.9,  999.0,    1.7,    1.2,    3.4,    4.4,  999.0,    7.4,   10.7,    9.8,   10.0,    9.5,   10.3,   10.3,    9.7,    9.6,    9.2,    7.3,    9.9,   12.6,   16.2,  999.0,  999.0,  999.0,  999.0
2000/05/12 03:00,   -2.5,  999.0,  999.0,  999.0,   -3.2,   -3.5,   -4.3,   -2.1,   -1.3,  999.0,    5.3,    4.3,  999.0,  999.0,    9.7,   10.2,   11.4,   10.3,   10.7,    9.5,    8.2,   10.7,   12.1,  999.0,   11.3,   11.6,   13.7,  999.0,  999.0,  999.0,  999.0,  999.0
2000/05/12 03:10,   -3.1,  999.0,  999.0,   -1.4,   -2.6,   -3.1,   -3.4,   -2.6,   -1.2,    3.7,    4.3,  999.0,  999.0,    7.4,  999.0,    9.4,   10.0,   10.7,    7.8,    7.5,    8.4,    9.4,   12.1,   13.3,   14.0,   15.0,   16.0,  999.0,  999.0,  999.0,  999.0,  999.0
2000/05/12 03:20,  999.0,   -2.8,  999.0,   -1.0,   -2.8,   -3.0,   -3.7,   -2.4,    0.2,    2.2,    4.7,    5.7,  999.0,    8.5,    8.3,    8.0,    8.6,   10.1,    9.4,    8.9,    7.5,    9.2,   10.7,   13.1,   13.2,   13.9,   15.7,   14.5,  999.0,  999.0,  999.0,  999.0
2000/05/12 03:30,   -2.0,   -3.1,  999.0,  999.0,  999.0,    5.8,   -3.3,   -1.1,    5.0,    2.5,    6.6,    5.8,    0.5,    8.7,    7.6,    7.5,    6.8,  999.0,    9.7,    9.6,  999.0,  999.0,  999.0,  999.0,    9.8,   13.0,   16.3,  999.0,  999.0,  999.0,  999.0,  999.0
2000/05/12 03:40,   -2.0,   -3.2,   -2.3,   -0.7,   -0.5,   -1.7,   -2.1,  999.0,   -1.0,    1.6,    3.2,    3.2,    5.4,    5.3,    5.9,    7.2,    7.6,    7.9,  999.0,    8.9,    7.9,   10.3,  999.0,  999.0,    9.1,   11.6,   14.2,   17.3,  999.0,  999.0,  999.0,  999.0
2000/05/12 03:50,  999.0,  999.0,  999.0,   -0.4,   -3.1,   -3.1,   -2.3,  999.0,   -1.4,   -0.2,    2.3,    1.5,    5.5,    6.4,    8.2,    9.5,    8.6,    8.4,    9.0,    8.3,    7.6,    9.5,   10.4,    9.4,    9.3,  999.0,   14.7,  999.0,  999.0,  999.0,  999.0,  999.0
2000/05/12 04:00,   -3.2,   -3.1,   -1.4,   -1.0,  999.0,   -3.0,   -3.6,   -2.5,   -0.8,    1.2,    3.2,    1.7,    5.0,    6.5,    7.1,    9.0,   10.1,   10.6,  999.0,    8.4,    9.8,   11.4,    9.9,    8.9,    9.1,   11.1,   13.1,  999.0,  999.0,  999.0,  999.0,  999.0
2000/05/12 04:10,  999.0,  999.0,   -1.8,  999.0,   -2.5,  999.0,  999.0,   -1.4,   -0.0,    0.7,  999.0,    3.2,    2.5,    5.4,    7.1,    9.3,    9.6,    9.9,    9.2,   10.0,   12.8,   12.8,   12.0,   11.3,   10.3,   11.8,   13.3,  999.0,  999.0,  999.0,  999.0,  999.0
2000/05/12 04:20,  999.0,  999.0,  999.0,   -0.5,   -2.0,    1.5,   -3.4,   -3.0,   -1.8,    0.1,    3.3,    4.1,    5.3,    6.2,    6.6,    7.9,    7.6,    8.8,    9.4,   10.1,   11.1,   12.8,   11.9,   10.8,   11.6,   11.7,   12.4,  999.0,  999.0,  999.0,  999.0,  999.0
2000/05/12 04:30,   -0.5,  999.0,   -1.3,  999.0,  999.0,   -2.8,   -2.3,  999.0,   -0.1,    8.1,    6.2,    6.9,    5.5,    4.8,    5.3,    6.9,    7.6,    8.5,    8.1,    8.9,  999.0,   11.3,   11.0,   11.4,   12.4,   12.5,  999.0,  999.0,  999.0,  999.0,  999.0,  999.0
2000/05/12 04:40,   -2.7,   -1.9,   -2.3,   -1.1,   -3.0,   -3.5,   -4.5,   -8.0,   -2.0,  999.0,    2.6,    2.2,    2.3,    3.8,    6.2,    6.0,    6.8,    7.7,    9.4,    9.5,   11.6,   11.1,   11.1,   10.8,   11.7,   11.1,  999.0,  999.0,  999.0,  999.0,  999.0,  999.0
2000/05/12 04:50,  999.0,    1.1,   -1.5,   -0.3,   -0.8,   -1.8,   -4.6,   -4.7,    1.5,   -0.6,   -0.0,    1.5,    3.5,   -0.8,    4.2,    7.7,    7.7,    7.5,    7.7,    9.3,    8.7,    8.5,   10.4,  999.0,   10.4,   10.6,   12.0,   14.1,  999.0,  999.0,  999.0,  999.0
2000/05/12 05:00,   -2.1,   -1.2,    0.1,    1.2,   -1.5,   -1.7,   -2.7,   -4.3,   -2.0,   -0.1,    1.9,    1.8,    1.0,    1.3,    6.3,    7.7,    7.2,    6.8,    7.8,    8.9,    8.3,    8.3,   10.2,   10.6,   10.0,   10.3,   12.4,   14.5,  999.0,  999.0,  999.0,  999.0
2000/05/12 05:10,   -1.9,   -0.8,   -1.7,   -2.5,  999.0,   -2.8,   -2.9,   -1.1,   -2.7,  -11.2,   -1.4,    2.1,   -1.2,   -1.1,    2.3,    5.0,  999.0,    9.4,  999.0,    7.8,  999.0,  999.0,    8.5,    7.9,  999.0,   10.9,  999.0,  999.0,  999.0,  999.0,  999.0,  999.0
2000/05/12 05:20,    1.3,   -2.9,    3.4,    0.3,   -0.5,  999.0,   -1.8,   -2.1,   -3.2,   -1.5,    1.4,   -0.4,    3.2,    5.0,    6.9,    6.1,    7.3,    7.9,    7.3,    8.3,    9.3,    8.5,    9.0,    9.8,   10.0,   12.3,   15.4,  999.0,  999.0,  999.0,  999.0,  999.0
2000/05/12 05:30,  999.0,  999.0,    1.6,    1.1,  999.0,  999.0,    1.5,   -1.3,   -4.6,    0.4,    4.1,    1.5,   -0.7,    1.5,    4.6,    5.7,    6.6,    7.7,    9.0,    7.6,    8.4,    8.1,    8.2,    8.4,    9.2,   11.4,   15.6,  999.0,  999.0,  999.0,  999.0,  999.0
2000/05/12 05:40,  999.0,  999.0,    0.3,   -0.4,  999.0,   -1.2,   -0.9,   -1.7,  999.0,  999.0,    0.5,   -0.0,    1.4,    3.7,    4.7,    6.0,    7.2,    8.4,    9.4,    9.1,    9.2,    9.9,    9.6,    8.9,    9.3,   12.1,   16.8,   19.4,  999.0,  999.0,  999.0,  999.0
2000/05/12 05:50,  999.0,   -1.8,  999.0,   -1.2,    0.9,    0.7,   -1.1,   -2.1,   -2.7,   -1.1,    0.5,    0.7,    1.3,    2.7,    4.2,    6.0,    6.8,    8.4,    8.9,    8.5,    8.3,    8.0,    7.5,    8.1,    7.5,   11.7,   15.9,  999.0,  999.0,  999.0,  999.0,  999.0
2000/05/12 06:00,  999.0,  999.0,  999.0,   -0.4,   -0.1,    0.3,    0.8,   -1.5,   -1.7,   -0.1,    0.5,    1.3,    3.4,    4.5,    6.7,    8.9,    8.7,    8.6,    8.0,    8.2,    7.1,    7.1,    5.9,  999.0,    7.8,    9.9,  999.0,  999.0,  999.0,  999.0,  999.0,  999.0
2000/05/12 06:10,  999.0,   -0.1,  999.0,    0.0,   -0.0,  999.0,   -0.8,  999.0,   -1.7,    0.6,    2.9,    3.5,    5.2,    5.4,    6.5,    7.1,    8.2,    8.0,    7.3,    6.7,    7.1,    7.4,    7.1,    7.7,    7.5,   11.1,  999.0,  999.0,  999.0,  999.0,  999.0,  999.0
2000/05/12 06:20,   -0.4,   -2.1,   -1.3,  999.0,   -0.9,   -1.4,   -2.2,   -1.2,   -1.2,    1.0,    3.3,    2.9,    4.6,    5.5,    6.2,    6.4,    7.0,    6.9,    7.3,    6.1,    7.2,    7.8,    9.6,    8.9,    8.3,  999.0,  999.0,  999.0,  999.0,  999.0,  999.0,  999.0
2000/05/12 06:30,  999.0,  999.0,  999.0,  999.0,  999.0,   -0.2,  999.0,  999.0,    0.1,    0.2,    2.4,    3.6,    4.7,    4.0,    5.6,    5.3,    6.9,    6.1,    6.9,    7.9,    8.1,    7.6,    7.7,    9.8,  999.0,  999.0,  999.0,  999.0,  999.0,  999.0,  999.0,  999.0
2000/05/12 06:40,   -0.4,  999.0,  999.0,  999.0,  999.0,   -2.2,  999.0,    1.1,   -0.1,    2.1,    3.5,    4.0,    4.2,    3.9,    3.3,    4.2,    5.0,    6.9,    6.6,    6.5,    6.9,    7.4,    8.6,    9.7,  999.0,  999.0,  999.0,  999.0,  999.0,  999.0,  999.0,  999.0
2000/05/12 06:50,   -0.4,   -0.6,   -1.0,    0.2,   -0.9,   -1.8,   -2.2,   -0.6,  999.0,    3.2,    4.2,    5.4,    5.3,    4.8,    4.5,    4.6,    6.4,    6.0,    5.0,    6.0,    6.2,    8.9,   10.9,  999.0,  999.0,  999.0,  999.0,  999.0,  999.0,  999.0,  999.0,  999.0
2000/05/12 07:00,  999.0,   -0.6,  999.0,  999.0,  999.0,  999.0,   -2.4,   -2.5,    1.0,    2.9,    4.3,    6.5,    4.5,    4.2,    4.2,    5.1,    5.6,    7.0,    7.0,    5.8,    6.1,    8.9,   11.6,  999.0,  999.0,  999.0,  999.0,  999.0,  999.0,  999.0,  999.0,  999.0
2000/05/12 07:10,   -1.0,   -1.6,   -0.9,   -1.6,   -2.2,   -2.4,   -2.5,   -1.7,    5.6,  999.0,    3.1,    6.7,    2.9,    4.5,    4.7,    4.7,    7.3,    8.2,    6.3,    6.2,    7.1,   10.1,   12.2,  999.0,  999.0,  999.0,  999.0,  999.0,  999.0,  999.0,  999.0,  999.0
2000/05/12 07:20,   -0.2,   -1.7,   -1.0,   -2.3,   -3.3,   -4.4,    4.3,   -1.3,    8.0,    2.0,    4.0,    4.6,    5.2,    4.5,    4.6,    5.0,    6.4,    6.1,  999.0,    6.7,    7.1,   11.9,  999.0,  999.0,  999.0,  999.0,  999.0,  999.0,  999.0,  999.0,  999.0,  999.0
2000/05/12 07:30,  999.0,  999.0,   -1.9,   -4.4,   -3.4,   -2.7,  999.0,  999.0,   -1.5,  999.0,    3.0,    4.3,    5.5,    4.8,    5.0,    6.0,    5.9,    6.9,    6.5,    8.0,    9.5,   11.7,  999.0,  999.0,  999.0,  999.0,  999.0,  999.0,  999.0,  999.0,  999.0,  999.0
2000/05/12 07:40,  999.0,  999.0,   -2.4,   -2.2,   -3.8,   -3.3,   -2.8,   -2.6,   -1.9,  999.0,    3.5,  999.0,  999.0,  999.0,    6.3,    5.5,    5.4,    5.5,    6.1,    6.7,    8.7,   11.6,  999.0,  999.0,  999.0,  999.0,  999.0,  999.0,  999.0,  999.0,  999.0,  999.0
2000/05/12 07:50,  999.0,   -1.8,   -3.1,   -3.6,   -4.0,   -4.1,   -4.3,   -2.4,   -1.3,    0.8,    3.0,    4.5,    5.3,  999.0,    5.9,    5.4,    5.1,    4.8,    4.8,    6.6,    8.9,   11.8,  999.0,  999.0,  999.0,  999.0,  999.0,  999.0,  999.0,  999.0,  999.0,  999.0
2000/05/12 08:00,  999.0,  999.0,   -2.6,   -3.3,   -4.1,   -3.5,   -3.3,   -3.1,   -1.8,  999.0,    2.4,    3.5,    5.4,    6.2,    5.6,    5.4,    6.1,    5.0,    6.5,  999.0,   11.6,   13.3,  999.0,  999.0,  999.0,  999.0,  999.0,  999.0,  999.0,  999.0,  999.0,  999.0
2000/05/12 08:10,  999.0,   -1.8,  999.0,   -2.1,   -2.5,   -4.2,   -2.7,  999.0,  999.0,   -2.5,    2.0,    2.1,    4.7,    4.6,    4.9,    6.2,    6.2,    6.2,    7.0,    8.7,   11.3,   13.2,  999.0,  999.0,  999.0,  999.0,  999.0,  999.0,  999.0,  999.0,  999.0,  999.0
2000/05/12 08:20,  999.0,  999.0,  999.0,   -2.9,  999.0,   -4.0,   -3.2,   -2.4,   -1.8,   -1.6,    1.7,    2.2,  999.0,    4.7,    4.0,    3.3,    4.6,    5.4,    6.8,  999.0,   12.1,  999.0,  999.0,  999.0,  999.0,  999.0,  999.0,  999.0,  999.0,  999.0,  999.0,  999.0
2000/05/12 08:30,  999.0,  999.0,   -2.3,   -2.8,   -4.0,   -4.3,   -3.2,   -2.4,  999.0,  999.0,  999.0,    1.7,    2.9,    3.3,    4.0,    4.2,    4.0,    4.8,    6.2,   10.2,   12.7,  999.0,  999.0,  999.0,  999.0,  999.0,  999.0,  999.0,  999.0,  999.0,  999.0,  999.0
2000/05/12 08:40,  999.0,  999.0,   -2.9,   -3.2,   -3.7,   -4.3,   -3.2,  999.0,  999.0,  999.0,    1.8,  999.0,    3.1,    4.8,    5.5,    5.4,    4.2,    4.6,    7.0,  999.0,   12.9,  999.0,  999.0,  999.0,  999.0,  999.0,  999.0,  999.0,  999.0,  999.0,  999.0,  999.0
2000/05/12 08:50,  999.0,  999.0,   -3.1,   -3.8,   -4.2,   -4.5,  999.0,  999.0,  999.0,    0.0,    1.3,    2.1,  999.0,  999.0,  999.0,    4.5,    4.0,    5.6,    8.8,   11.1,   12.9,  999.0,  999.0,  999.0,  999.0,  999.0,  999.0,  999.0,  999.0,  999.0,  999.0,  999.0
2000/05/12 09:00,  999.0,  999.0,  999.0,   -3.5,   -3.8,   -3.6,   -3.1,  999.0,  999.0,  999.0,    1.5,  999.0,    3.1,    2.9,  999.0,    4.4,    4.2,    5.8,    7.2,  999.0,   13.4,  999.0,  999.0,  999.0,  999.0,  999.0,  999.0,  999.0,  999.0,  999.0,  999.0,  999.0
2000/05/12 09:10,  999.0,  999.0,  999.0,   -2.6,   -3.8,  999.0,  999.0,   -2.8,   -2.1,    1.8,    1.7,    2.6,    2.5,    2.9,    3.7,    3.0,    4.1,    6.6,    9.0,   10.3,   14.3,  999.0,  999.0,  999.0,  999.0,  999.0,  999.0,  999.0,  999.0,  999.0,  999.0,  999.0
2000/05/12 09:20,  999.0,  999.0,  999.0,   -3.0,  999.0,   -3.6,  999.0,  999.0,  999.0,    0.9,    2.7,  999.0,    1.8,    2.8,    2.4,    6.7,    4.8,    6.1,  999.0,   10.5,   13.3,  999.0,  999.0,  999.0,  999.0,  999.0,  999.0,  999.0,  999.0,  999.0,  999.0,  999.0
2000/05/12 09:30,  999.0,   -2.2,   -3.8,  999.0,   -3.0,   -3.2,  999.0,  999.0,    0.9,  999.0,    5.3,    3.8,    3.5,    3.0,  999.0,    3.9,    3.8,    5.5,    7.0,   10.1,  999.0,  999.0,  999.0,  999.0,  999.0,  999.0,  999.0,  999.0,   19.6,  999.0,   19.6,   18.6
2000/05/12 09:40,  999.0,  999.0,  999.0,  999.0,   -3.6,   -2.3,  999.0,  999.0,   -0.6,  999.0,  999.0,  999.0,    4.0,  999.0,    3.7,    3.2,    4.0,    4.0,    7.0,    9.2,   14.2,  999.0,  999.0,  999.0,  999.0,  999.0,  999.0,  999.0,  999.0,   19.4,   19.9,   18.6
2000/05/12 09:50,  999.0,   -3.1,  999.0,  999.0,  999.0,   -2.8,   -1.7,  999.0,    2.5,    4.3,    6.7,    3.3,    4.2,    3.8,    3.1,    3.7,    4.3,    5.1,    6.5,    8.7,   11.6,  999.0,  999.0,  999.0,  999.0,  999.0,  999.0,   20.1,  999.0,  999.0,   18.2,   17.2
2000/05/12 10:00,  999.0,   -2.3,   -2.4,   -2.7,   -3.0,   -3.1,   -0.9,   -0.6,    0.9,  999.0,  999.0,    2.7,    3.3,    3.1,    1.7,    2.6,    3.3,    4.1,    5.7,    9.0,   12.1,  999.0,  999.0,  999.0,  999.0,  999.0,  999.0,   18.6,  999.0,  999.0,  999.0,   17.0
2000/05/12 10:10,   -2.7,   -2.7,   -3.6,   -3.6,   -2.7,  999.0,   -1.5,   -0.4,    1.5,    2.2,  999.0,    2.7,    3.5,    3.3,    4.5,    2.9,    2.4,    3.9,    6.5,   10.0,   12.2,  999.0,  999.0,  999.0,  999.0,  999.0,  999.0,  999.0,   17.8,   17.9,  999.0,   16.2
2000/05/12 10:20,   -3.1,   -1.9,   -3.1,   -3.5,  999.0,   -1.5,   -0.2,   -0.2,    1.7,    0.8,    2.6,    4.0,    3.1,  999.0,    3.2,    3.0,    2.4,    1.8,    5.3,  999.0,   10.3,  999.0,  999.0,  999.0,  999.0,  999.0,  999.0,  999.0,  999.0,   17.2,  999.0,   16.3
2000/05/12 10:30,   -3.1,   -3.9,   -4.0,   -1.2,   -0.5,   -1.3,    1.3,    0.7,  999.0,    3.7,    2.8,    3.7,    2.5,    3.8,    3.8,    3.8,    4.6,    4.3,    5.3,    7.6,    9.9,  999.0,  999.0,  999.0,  999.0,  999.0,  999.0,  999.0,  999.0,   17.7,   16.0,   16.3
2000/05/12 10:40,   -4.9,  999.0,   -3.3,   -4.0,   -3.1,   -2.5,   -3.5,   -0.8,   -2.0,   -4.5,    4.3,    2.8,    2.5,    3.8,    3.1,    3.3,    4.1,    4.4,    4.4,    8.0,   10.6,    8.8,  999.0,  999.0,  999.0,  999.0,  999.0,   18.0,  999.0,   16.9,   15.8,   15.2
2000/05/12 10:50,   -2.4,  999.0,   -1.2,  999.0,   -3.1,   -3.7,   -4.5,   -1.7,  999.0,    1.6,    2.2,    2.8,  999.0,    2.5,    2.6,    3.7,    3.9,    3.0,    5.4,    6.5,    8.5,  999.0,  999.0,  999.0,  999.0,  999.0,  999.0,   18.2,   18.4,   16.2,   16.3,  999.0
2000/05/12 11:00,   -2.4,   -1.0,   -2.2,   -3.5,   -1.8,  999.0,  999.0,   -0.4,   -0.8,    0.2,  999.0,    1.0,    3.3,    4.0,    3.9,  999.0,    3.7,    3.7,    4.3,    6.3,    8.3,    8.8,  999.0,  999.0,  999.0,  999.0,  999.0,   18.0,   17.7,  999.0,  999.0,   15.5
2000/05/12 11:10,  999.0,   -3.4,   -4.3,   -5.0,   -2.1,   -2.0,  999.0,  999.0,   -1.4,  999.0,  999.0,    3.0,    4.8,    4.6,    5.3,    5.0,    5.9,    5.3,    6.3,    7.7,    5.4,    5.2,  999.0,  999.0,  999.0,  999.0,   17.7,   18.3,  999.0,  999.0,   15.8,   15.9
2000/05/12 11:20,   -3.3,   -0.4,   -0.8,   -2.3,   -1.6,   -0.5,   -0.6,    2.5,  999.0,    4.6,    4.0,    5.8,    3.6,    4.4,    3.4,    4.3,    4.4,    3.7,    4.6,    8.5,    7.3,  999.0,  999.0,  999.0,  999.0,  999.0,   18.0,   18.4,   17.0,   15.7,   15.3,   16.3
2000/05/12 11:30,   -1.2,   -0.8,   -2.2,    0.1,   -2.3,   -3.1,   -2.1,    3.2,    2.6,    3.2,    3.4,    4.7,    4.4,    5.0,    4.1,    1.8,  999.0,    2.1,    4.1,    8.2,    9.4,  999.0,  999.0,  999.0,  999.0,  999.0,   16.6,   18.9,   18.0,   16.2,   15.5,   17.7
2000/05/12 11:40,   -1.7,   -1.1,   -2.2,   -3.1,  999.0,   -1.5,   -0.1,    2.3,    3.2,    1.4,    3.0,    2.3,    2.6,  999.0,    4.6,    1.7,    1.9,    4.4,    5.2,    9.6,    6.2,  999.0,  999.0,  999.0,  999.0,  999.0,   17.9,   18.2,  999.0,   16.6,   16.7,   18.5
2000/05/12 11:50,   -2.7,   -1.6,   -2.3,   -2.3,    0.4,    0.6,    0.8,    3.6,    4.4,   -0.2,  999.0,    0.9,    4.2,  999.0,    5.2,    5.5,    1.7,    6.9,    6.5,    7.9,    9.8,    6.6,  999.0,  999.0,  999.0,  999.0,  999.0,   16.9,  999.0,   16.1,  999.0,  999.0
2000/05/12 12:00,  999.0,   -0.7,   -0.8,   -0.1,   -0.0,    0.8,  999.0,    2.4,    0.4,    7.3,    2.5,    4.6,    4.2,    3.4,    3.3,    3.9,    4.4,    5.6,    6.5,    8.4,   11.2,   10.3,  999.0,  999.0,  999.0,  999.0,  999.0,  999.0,   17.3,   16.2,   16.8,  999.0
2000/05/12 12:10,  999.0,   -3.0,   -2.0,   -1.7,  999.0,   -2.7,   -7.9,   -5.5,   -1.9,   -2.8,   -1.5,    3.6,    3.2,    5.1,    4.4,    4.7,    3.3,    7.1,    6.6,    7.4,    7.8,    9.6,  999.0,    9.0,  999.0,  999.0,  999.0,  999.0,   17.8,   15.5,   15.6,  999.0
2000/05/12 12:20,  999.0,  999.0,   -2.8,  999.0,  999.0,    0.6,   -1.0,  999.0,    2.8,    2.4,   -1.3,   -2.2,   -3.3,    5.4,    2.8,    4.4,    7.2,    5.8,    5.8,   10.0,   15.2,   14.3,  999.0,  999.0,  999.0,  999.0,  999.0,  999.0,  999.0,   16.7,   18.3,   20.0
2000/05/12 12:30,   -3.0,   -2.1,   -0.4,   -3.3,   -2.2,   -0.9,    3.2,  999.0,   -9.6,    0.7,   -1.1,    5.1,    8.6,    5.4,    6.1,    9.2,   10.4,   10.5,    8.6,   10.3,   10.9,   11.6,    6.6,  999.0,  999.0,  999.0,  999.0,   19.1,   18.6,   18.3,   21.2,   23.5
2000/05/12 12:40,   -5.2,   -3.6,   -2.5,   -5.6,   -0.2,   -0.7,   -1.9,   -3.7,  999.0,   -4.2,   -3.3,    4.4,    8.5,    7.1,    5.0,    9.3,    6.9,   15.0,   17.3,   19.2,   21.1,   38.9,  999.0,   -6.4,   -2.5,    4.7,  999.0,   23.6,   25.6,   23.9,   25.2,   28.0
2000/05/12 12:50,   -1.7,   -3.2,   -3.0,   -2.2,    0.4,  999.0,  999.0,   19.4,   14.1,   13.4,   13.7,    6.3,    4.5,   10.4,   11.1,   14.0,   15.3,    9.3,   12.4,   24.8,  999.0,   21.3,   12.1,    9.2,   14.7,   11.2,   16.8,  999.0,   18.6,  999.0,   23.3,   26.3
2000/05/12 13:00,  999.0,  999.0,  -14.6,    1.2,   -2.2,    0.2,  999.0,    6.0,    1.3,    2.6,    3.1,    7.6,   -1.2,   -2.5,    7.4,    3.9,    9.4,    8.4,    8.2,    9.2,   12.3,   13.2,   11.6,    9.0,    4.5,  999.0,    5.4,    8.6,   15.6,  999.0,   15.4,   21.4
2000/05/12 13:10,    0.7,  999.0,    0.2,   -0.7,    1.1,    2.0,  999.0,    2.8,    3.6,    4.4,    7.7,   -0.3,  999.0,    2.4,   -1.0,    9.4,   12.1,    9.6,    8.4,    7.2,    8.5,    7.7,    8.7,   14.5,   18.0,   13.0,    5.7,  999.0,   14.2,   14.3,   16.6,  999.0
2000/05/12 13:20,  999.0,  999.0,   -0.1,    2.0,    1.1,    2.8,    4.1,    2.6,    3.3,    3.7,    4.5,  999.0,    4.8,    4.9,    5.8,    3.4,    4.2,    3.9,    5.4,    4.2,    2.2,    4.5,    8.1,    9.0,   11.3,   10.7,  999.0,   14.7,   14.8,   16.4,   19.3,  999.0
2000/05/12 13:30,    1.2,  999.0,    2.4,  999.0,    5.3,   -3.0,   -3.0,    1.9,    2.0,    3.5,    4.0,   -1.0,    2.0,  999.0,   12.7,    9.4,    6.3,    3.6,    0.8,    2.6,    3.1,    2.2,    4.9,    6.0,  999.0,   -0.0,    0.4,  999.0,  999.0,   14.1,   15.6,  999.0
2000/05/12 13:40,  999.0,    0.1,    1.2,   -0.3,  999.0,    0.6,    1.3,    2.5,    5.4,    8.3,    5.4,    2.3,    9.0,    4.1,   11.0,    7.9,    9.5,    7.1,    7.5,    6.5,    7.7,    8.7,    6.9,  999.0,  999.0,  999.0,  999.0,   15.0,  999.0,   17.9,   21.3,  999.0
2000/05/12 13:50,  999.0,  999.0,    3.0,    1.5,    2.0,    3.0,    3.7,  999.0,  999.0,    2.2,    4.8,    3.1,    3.3,    4.1,    3.6,   -0.5,  999.0,    6.3,    7.9,    8.5,   10.8,    9.7,   10.3,  999.0,  999.0,  999.0,  999.0,   14.0,   16.0,   19.6,   19.7,  999.0
2000/05/12 14:00,  999.0,  999.0,  999.0,    1.3,    0.3,    1.1,    2.7,    2.2,    2.2,    5.5,    3.7,    3.7,    4.5,    3.5,    3.8,    3.6,    3.4,    5.1,    3.5,    3.7,    6.0,    8.8,  999.0,  999.0,  999.0,  999.0,  999.0,   14.5,   14.2,   17.0,   19.9,  999.0
2000/05/12 14:10,  999.0,  999.0,  999.0,    0.7,    1.8,    4.4,    2.0,    1.0,    1.7,    4.1,  999.0,    3.2,    1.1,    4.8,    4.5,    4.4,    4.4,    3.2,    5.3,  999.0,    8.6,    9.2,    9.2,  999.0,  999.0,  999.0,  999.0,   15.1,   14.2,   16.7,   18.4,  999.0
2000/05/12 14:20,  999.0,  999.0,  999.0,    1.9,    2.3,    3.2,  999.0,    3.8,  999.0,    3.1,    2.0,  999.0,    3.7,    4.4,    3.7,    4.6,    5.2,    5.0,    5.6,    5.8,    6.3,   10.0,    8.8,  999.0,  999.0,  999.0,  999.0,  999.0,   13.5,   14.8,   18.6,  999.0
2000/05/12 14:30,  999.0,  999.0,    4.8,    3.4,    2.0,    4.4,    4.0,    8.4,    6.6,    6.2,    2.8,    4.9,    3.7,    3.3,    2.4,    2.4,    3.5,    3.5,    3.0,    6.0,    9.3,   12.9,   10.4,  999.0,  999.0,  999.0,  999.0,  999.0,   12.0,   16.1,   18.0,  999.0
2000/05/12 14:40,  999.0,  999.0,  999.0,    1.1,  999.0,  999.0,    4.6,    5.0,    6.1,    6.8,  999.0,    4.4,    3.1,    2.7,    3.6,    1.9,    4.0,    3.1,    3.1,    3.0,    4.8,  999.0,  999.0,  999.0,  999.0,  999.0,  999.0,  999.0,   12.7,   15.7,   18.6,  999.0
2000/05/12 14:50,  999.0,  999.0,  999.0,  999.0,  999.0,    3.3,    5.7,    6.0,    7.1,    8.4,    6.0,    4.4,    3.5,    4.0,  999.0,    3.5,    3.9,    2.2,    2.0,    2.9,    8.4,  999.0,  999.0,  999.0,  999.0,  999.0,  999.0,  999.0,   12.0,   16.0,  999.0,  999.0
2000/05/12 15:00,   -0.9,   -3.3,  999.0,    2.7,    7.6,    4.1,    4.5,    6.3,    7.9,    6.8,    3.3,    4.2,    3.2,    2.2,    1.4,    1.2,    2.8,    3.5,    5.4,    8.6,  999.0,  999.0,  999.0,  999.0,  999.0,  999.0,   10.3,   12.7,   13.8,   16.5,  999.0,  999.0
2000/05/12 15:10,   -1.1,  999.0,  999.0,   -1.2,  999.0,    3.5,    4.5,    4.5,    5.6,    4.9,    4.9,    4.6,    5.0,    1.1,    1.6,  999.0,    1.6,    0.4,    4.7,  999.0,  999.0,  999.0,  999.0,  999.0,  999.0,  999.0,   10.5,   11.2,   11.7,  999.0,  999.0,  999.0
2000/05/12 15:20,  999.0,  999.0,   -2.1,    0.6,    2.8,  999.0,  999.0,  999.0,    5.6,    6.6,    5.4,    6.3,    5.3,  999.0,  999.0,  999.0,    2.5,    3.8,    3.8,    5.7,  999.0,    9.7,  999.0,  999.0,  999.0,  999.0,   11.1,   11.7,   13.0,   16.2,  999.0,  999.0
2000/05/12 15:30,  999.0,  999.0,   -5.6,   -0.6,   -0.2,    4.7,    3.1,    4.6,  999.0,    4.9,    4.1,    4.9,    5.3,    6.6,    5.7,    5.7,    6.2,    3.5,    4.2,    5.3,  999.0,    8.5,  999.0,  999.0,  999.0,  999.0,   11.0,   11.7,   14.1,  999.0,  999.0,  999.0
2000/05/12 15:40,  999.0,   -4.5,   -1.9,   -3.0,   -8.6,    0.8,    1.9,    7.8,    8.4,   10.2,    3.4,    2.3,    4.8,    3.4,    2.3,    3.1,    6.3,    8.0,    9.6,   11.1,   10.3,   18.8,   20.7,  999.0,  999.0,   16.3,   15.1,  999.0,  999.0,  999.0,   19.4,   21.7
2000/05/12 15:50,  999.0,   -4.3,   -5.7,   -1.8,   -1.6,    4.1,    4.5,    1.5,    3.7,    9.2,    5.4,    2.9,    1.5,    6.5,    4.6,    3.1,    2.7,    5.1,    6.4,   11.7,    8.4,   10.5,    8.6,  999.0,    9.7,   12.6,   13.7,   14.8,  999.0,  999.0,  999.0,   21.1
2000/05/12 16:00,  -10.9,   -0.4,   11.4,    5.5,   -8.4,   -6.0,   -6.8,    7.0,   -4.0,    1.9,   -1.3,    4.2,    6.6,    9.1,    9.3,    9.9,    6.5,    7.3,    5.1,    6.7,    6.1,    7.8,   11.6,   11.7,   11.1,   11.1,   13.1,  999.0,  999.0,  999.0,  999.0,  999.0
2000/05/12 16:10,  999.0,   -2.8,   -3.6,   -5.6,  999.0,   -1.3,  -20.6,   -1.3,   -6.9,  -11.1,   -1.7,    3.0,   -1.3,    3.5,  999.0,   -0.6,    4.4,   -2.7,    0.5,   -0.2,    3.1,    2.0,    2.8,    3.1,    3.9,    9.6,   12.9,  999.0,  999.0,  999.0,  999.0,  999.0
2000/05/12 16:20,   -4.4,  999.0,   -3.6,  999.0,  999.0,  999.0,   -2.0,    4.2,    1.9,    4.0,    5.3,    4.3,    3.7,    4.1,    5.8,    8.2,    8.5,    8.0,   10.7,   15.9,   11.2,   19.7,   18.7,   18.6,   29.5,   22.0,   23.9,  999.0,  999.0,  999.0,  999.0,  999.0
2000/05/12 16:30,   -4.1,   -6.3,   -5.5,  999.0,   -3.7,   -1.2,    2.0,    3.5,    3.3,    5.3,    4.0,    5.1,    4.9,    3.8,    4.7,    6.8,    5.4,    5.4,    9.3,   12.5,   12.2,    9.1,   10.5,    7.2,   14.0,   17.7,   17.5,   13.2,  999.0,  999.0,  999.0,  999.0
2000/05/12 16:40,   -4.0,   -2.4,   -3.6,    0.1,   -0.2,   -0.6,    2.2,    3.4,  999.0,    0.7,    2.7,   -2.3,    0.0,    3.1,  999.0,    6.3,    2.7,    4.7,    8.0,    9.2,   10.6,   10.4,   12.2,   16.0,   19.9,   23.7,   24.9,   31.0,   -1.0,   -3.3,  999.0,  999.0
2000/05/12 16:50,   -4.9,   -3.1,   -4.2,   -0.6,   -0.6,  999.0,   -4.6,    0.7,  999.0,   -1.1,    0.2,    4.5,    8.0,   10.4,   14.7,   10.8,    6.3,    9.0,    7.1,    6.3,    9.2,   21.6,   17.7,   14.7,   23.9,   24.7,   25.9,   -4.0,    3.4,    2.2,  999.0,  999.0
2000/05/12 17:00,   -2.5,   -2.3,   -1.0,    0.3,   -1.6,   -0.2,   -2.1,    4.2,   -0.3,   -1.1,    1.1,    3.0,    6.8,   10.0,   11.6,    7.2,    7.3,    4.6,    8.9,   10.3,    8.4,    7.2,   12.2,   12.9,   14.7,   14.4,   16.5,   13.3,   23.8,   -3.5,  999.0,  999.0
2000/05/12 17:10,  999.0,  999.0,  999.0,   -2.5,    0.4,   -0.5,  999.0,    3.9,    0.7,    6.0,   10.6,  999.0,   15.0,  999.0,  999.0,   11.3,    5.8,    7.0,   10.1,   11.9,   12.9,   11.9,   12.7,   11.7,    8.5,  999.0,  999.0,  999.0,  999.0,  999.0,  999.0,  999.0
2000/05/12 17:20,  999.0,  999.0,  999.0,   -3.5,   -1.1,    0.0,    0.0,   -0.9,    0.8,   12.1,    5.5,    4.7,    6.5,    0.4,    3.5,    4.9,    5.8,    6.0,    7.1,    7.6,    6.8,    8.1,    8.6,   12.7,    7.6,   10.3,    8.4,  999.0,  999.0,   16.0,   17.8,  999.0
2000/05/12 17:30,  999.0,   -2.9,  999.0,   -8.3,    1.5,    0.8,   -0.0,    0.7,    3.2,   12.4,    6.1,    4.9,   11.3,    5.7,    7.2,    6.9,    7.9,    8.2,    8.6,    9.3,   10.7,   12.0,   13.6,  999.0,  999.0,   13.3,   13.1,  999.0,  999.0,  999.0,  999.0,  999.0
2000/05/12 17:40,  999.0,  999.0,  999.0,  999.0,  999.0,  999.0,   -1.7,    2.2,    3.8,    4.2,    3.6,    3.6,    4.3,    4.2,    7.7,    6.8,    5.6,    5.0,    5.2,    4.9,    5.7,    8.4,  999.0,  999.0,  999.0,  999.0,   12.6,  999.0,  999.0,  999.0,  999.0,  999.0
2000/05/12 17:50,  999.0,  999.0,   -2.2,  999.0,   -2.1,   -0.3,    1.0,    0.4,    2.6,    3.9,    5.7,    5.4,    4.6,    8.3,    4.4,    4.1,    3.8,    6.0,    4.5,    6.2,  999.0,  999.0,  999.0,  999.0,  999.0,   10.8,   12.8,  999.0,  999.0,  999.0,  999.0,  999.0
2000/05/12 18:00,   -1.6,  999.0,   -1.5,   -2.3,  999.0,   -0.4,   -0.3,    2.3,    3.8,    3.8,    4.5,    4.7,    3.6,    4.3,    3.2,    1.4,    0.2,  999.0,    3.1,    6.3,    9.1,  999.0,  999.0,  999.0,  999.0,   11.0,   12.8,  999.0,   15.5,  999.0,  999.0,  999.0
2000/05/12 18:10,   -1.0,   -2.6,   -2.3,  999.0,   -0.8,   -0.4,  999.0,    3.8,  999.0,    4.6,    3.1,    3.9,    3.9,    3.6,    2.2,    2.6,    1.6,   -0.8,    1.8,   -0.1,    0.0,    1.6,  999.0,  999.0,  999.0,  999.0,  999.0,   11.6,   14.0,  999.0,  999.0,  999.0
2000/05/12 18:20,  999.0,   -2.4,   -2.5,   -3.4,   -2.4,  999.0,  999.0,  999.0,    4.0,    6.0,    6.5,    6.0,    4.5,    6.0,    5.2,    3.4,    0.1,    2.5,    4.4,    3.4,  999.0,  999.0,  999.0,  999.0,  999.0,    9.6,  999.0,   13.3,   14.6,   15.9,  999.0,  999.0
2000/05/12 18:30,  999.0,  999.0,   -1.9,  999.0,  999.0,  999.0,    1.3,    3.2,  999.0,    5.9,    5.2,  999.0,    2.8,    4.1,  999.0,    5.3,    6.1,    7.7,    8.6,  999.0,  999.0,  999.0,  999.0,  999.0,  999.0,   10.8,  999.0,  999.0,   17.2,   18.0,  999.0,  999.0
2000/05/12 18:40,  999.0,   -2.4,   -1.6,   -2.4,  999.0,    0.0,  999.0,    0.9,    3.2,    4.5,    3.7,    3.7,    2.7,    2.4,    3.0,    4.1,    3.7,    6.2,    8.2,   11.1,  999.0,  999.0,  999.0,  999.0,   11.6,  999.0,   13.9,   16.9,   17.6,   18.2,  999.0,  999.0
2000/05/12 18:50,   -2.8,   -2.1,  999.0,   -2.9,   -1.8,  999.0,    1.2,    0.7,    3.7,  999.0,    4.7,    3.6,    1.9,    2.1,    2.4,    3.0,    4.5,    6.4,    8.3,    8.5,  999.0,  999.0,  999.0,  999.0,  999.0,   12.7,  999.0,   18.3,   18.2,   18.5,  999.0,  999.0
2000/05/12 19:00,  999.0,  999.0,  999.0,  999.0,    0.0,  999.0,  999.0,    2.0,    3.1,    6.6,    5.3,    4.3,    3.7,    1.7,  999.0,    1.7,    2.8,  999.0,  999.0,    7.0,  999.0,  999.0,  999.0,  999.0,  999.0,   12.4,   16.5,   17.3,   18.4,  999.0,  999.0,  999.0
2000/05/12 19:10,  999.0,   -3.2,  999.0,   -1.8,   -1.3,    0.5,  999.0,    2.0,    0.8,    3.2,    3.1,    2.4,    2.0,  999.0,    0.3,    3.3,    2.9,    5.8,    6.7,    8.2,  999.0,  999.0,  999.0,  999.0,  999.0,   12.6,   15.7,   17.3,   17.6,   17.6,  999.0,  999.0
2000/05/12 19:20,  999.0,  999.0,  999.0,  999.0,  999.0,  999.0,    0.3,  999.0,  999.0,  999.0,    3.9,    2.9,    2.1,    1.0,    4.2,  999.0,    3.0,    5.9,    7.9,  999.0,  999.0,  999.0,  999.0,  999.0,  999.0,  999.0,   16.5,   18.2,  999.0,   17.0,  999.0,  999.0
2000/05/12 19:30,  999.0,  999.0,  999.0,  999.0,  999.0,  999.0,  999.0,  999.0,    0.7,    4.1,  999.0,  999.0,    2.2,    1.7,    1.1,    1.8,    2.7,  999.0,    8.6,  999.0,  999.0,  999.0,  999.0,  999.0,  999.0,  999.0,   17.0,   18.4,  999.0,  999.0,  999.0,  999.0
2000/05/12 19:40,  999.0,  999.0,  999.0,  999.0,  999.0,  999.0,    1.6,    0.5,    2.0,    4.5,    3.6,  999.0,    2.2,    2.9,    2.4,    1.8,    3.3,    4.7,    7.8,  999.0,  999.0,  999.0,  999.0,  999.0,  999.0,  999.0,  999.0,   17.8,  999.0,   17.4,  999.0,  999.0
2000/05/12 19:50,  999.0,  999.0,  999.0,  999.0,  999.0,  999.0,  999.0,  999.0,  999.0,  999.0,    2.5,    2.6,    3.1,    2.5,  999.0,  999.0,  999.0,    4.4,    6.9,  999.0,  999.0,  999.0,  999.0,  999.0,  999.0,   15.3,   16.9,   17.4,   16.3,  999.0,  999.0,  999.0
2000/05/12 20:00,  999.0,  999.0,  999.0,  999.0,    1.5,  999.0,  999.0,  999.0,  999.0,  999.0,  999.0,    3.1,    2.7,  999.0,  999.0,    1.5,  999.0,  999.0,    6.3,  999.0,  999.0,  999.0,  999.0,  999.0,  999.0,   15.6,  999.0,   17.8,  999.0,  999.0,  999.0,  999.0
2000/05/12 20:10,  999.0,  999.0,  999.0,  999.0,  999.0,  999.0,    2.5,  999.0,  999.0,  999.0,    3.0,  999.0,    2.3,    3.1,    3.3,    0.8,  999.0,    5.7,    4.3,  999.0,  999.0,  999.0,  999.0,  999.0,   12.3,   15.4,   17.0,   16.1,   15.8,   17.0,  999.0,  999.0
2000/05/12 20:20,   -2.6,  999.0,  999.0,  999.0,    4.9,  999.0,  999.0,  999.0,    0.5,  999.0,    2.6,    3.1,  999.0,  999.0,  999.0,    2.2,  999.0,    4.3,    5.0,  999.0,  999.0,  999.0,  999.0,  999.0,   12.2,   14.8,   16.6,  999.0,   17.4,  999.0,  999.0,  999.0
2000/05/12 20:30,  999.0,  999.0,  999.0,  999.0,  999.0,  999.0,  999.0,  999.0,    2.8,  999.0,  999.0,  999.0,  999.0,    2.9,    3.1,  999.0,    2.1,  999.0,  999.0,  999.0,  999.0,  999.0,  999.0,  999.0,   11.3,   14.2,   16.7,   17.4,  999.0,  999.0,  999.0,  999.0
2000/05/12 20:40,  999.0,  999.0,  999.0,  999.0,    4.7,  999.0,    0.6,  999.0,  999.0,  999.0,    2.9,  999.0,  999.0,  999.0,  999.0,  999.0,    2.1,    4.3,    7.4,  999.0,  999.0,  999.0,  999.0,  999.0,   13.9,   16.5,   17.9,   18.5,  999.0,  999.0,  999.0,  999.0
2000/05/12 20:50,  999.0,  999.0,  999.0,  999.0,  999.0,  999.0,  999.0,   -2.3,    3.5,  999.0,  999.0,    2.8,    3.9,  999.0,    1.5,    1.2,    3.8,    4.5,    7.6,  999.0,  999.0,  999.0,  999.0,  999.0,   14.5,   16.8,   18.3,   18.6,  999.0,  999.0,  999.0,  999.0
2000/05/12 21:00,  999.0,  999.0,  999.0,  999.0,  999.0,  999.0,  999.0,  999.0,  999.0,  999.0,  999.0,  999.0,    3.3,    2.7,  999.0,    3.1,    3.9,    4.2,  999.0,  999.0,  999.0,  999.0,  999.0,  999.0,   14.3,   16.6,   18.4,   18.3,  999.0,  999.0,  999.0,   14.4
2000/05/12 21:10,  999.0,  999.0,  999.0,  999.0,  999.0,  999.0,  999.0,  999.0,    4.4,  999.0,    2.9,    2.0,    1.6,    4.2,    2.4,    2.8,  999.0,  999.0,  999.0,  999.0,  999.0,  999.0,  999.0,  999.0,   15.1,   16.1,   17.3,   18.0,  999.0,  999.0,   12.9,   14.8
2000/05/12 21:20,  999.0,  999.0,  999.0,  999.0,  999.0,  999.0,    3.3,  999.0,  999.0,    2.9,    2.9,  999.0,    3.0,    2.9,  999.0,  999.0,  999.0,  999.0,  999.0,  999.0,  999.0,  999.0,  999.0,  999.0,  999.0,   16.9,   17.6,   18.8,  999.0,  999.0,   12.6,  999.0
2000/05/12 21:30,  999.0,  999.0,  999.0,  999.0,  999.0,  999.0,    1.8,    3.1,  999.0,  999.0,  999.0,    1.3,  999.0,    3.3,  999.0,    3.3,  999.0,  999.0,  999.0,  999.0,  999.0,  999.0,  999.0,  999.0,  999.0,  999.0,   17.4,   18.3,  999.0,  999.0,   13.1,   14.3
2000/05/12 21:40,  999.0,  999.0,  999.0,  999.0,  999.0,  999.0,  999.0,  999.0,    0.9,  999.0,  999.0,    1.0,  999.0,  999.0,  999.0,  999.0,  999.0,  999.0,  999.0,  999.0,  999.0,  999.0,  999.0,  999.0,   15.4,  999.0,   17.0,   17.9,  999.0,  999.0,   13.2,  999.0
2000/05/12 21:50,  999.0,  999.0,  999.0,  999.0,  999.0,  999.0,  999.0,  999.0,  999.0,  999.0,    1.3,    1.6,   -0.1,    3.8,    3.5,  999.0,    4.1,    5.5,  999.0,  999.0,  999.0,  999.0,  999.0,  999.0,   15.8,   17.5,   17.7,   17.8,  999.0,  999.0,   13.9,  999.0
2000/05/12 22:00,  999.0,  999.0,  999.0,  999.0,  999.0,  999.0,  999.0,  999.0,  999.0,    1.1,    2.5,    2.9,    2.8,  999.0,    2.4,  999.0,    4.5,    5.9,  999.0,  999.0,  999.0,  999.0,   21.5,   18.8,   15.4,   16.6,   17.9,   18.7,  999.0,  999.0,   13.9,  999.0
2000/05/12 22:10,  999.0,  999.0,  999.0,  999.0,  999.0,  999.0,  999.0,  999.0,  999.0,  999.0,    1.7,    2.7,    1.2,    1.1,    1.6,  999.0,  999.0,  999.0,  999.0,  999.0,  999.0,  999.0,  999.0,  999.0,   16.2,   17.7,   18.1,   18.9,  999.0,  999.0,   14.1,  999.0
2000/05/12 22:20,  999.0,  999.0,   -0.6,  999.0,  999.0,  999.0,   -2.3,  999.0,    0.2,    1.1,    1.5,    1.1,    3.8,    3.3,  999.0,  999.0,  999.0,  999.0,  999.0,   17.7,  999.0,  999.0,  999.0,   13.4,   15.9,   17.6,   18.1,  999.0,  999.0,  999.0,   13.4,  999.0
2000/05/12 22:30,  999.0,  999.0,  999.0,  999.0,  999.0,  999.0,  999.0,    2.4,  999.0,    1.4,    2.0,    2.0,  999.0,    3.2,  999.0,  999.0,  999.0,  999.0,   12.7,   21.9,  999.0,  999.0,  999.0,   14.7,   18.2,   17.1,   17.3,  999.0,  999.0,   12.2,   14.7,  999.0
2000/05/12 22:40,  999.0,  999.0,  999.0,  999.0,  999.0,  999.0,    1.1,    2.6,    2.2,    2.4,    2.7,    2.8,    5.1,    5.3,    3.9,    2.5,  999.0,    5.1,  999.0,  999.0,   24.5,  999.0,  999.0,   14.8,   18.9,   16.9,   17.9,  999.0,   15.9,   14.2,   16.8,  999.0
2000/05/12 22:50,  999.0,  999.0,  999.0,  999.0,  999.0,  999.0,  999.0,   -0.4,    1.1,    1.4,    1.9,    2.4,    4.4,    3.6,    4.1,    2.2,    4.3,    5.1,  999.0,  999.0,   21.8,   19.2,   21.2,   11.6,   16.0,   16.0,   16.4,  999.0,   13.7,   13.6,   14.9,  999.0
2000/05/12 23:00,   -2.9,  999.0,  999.0,  999.0,  999.0,  999.0,  999.0,    1.9,    2.9,  999.0,    1.4,  999.0,    3.7,    3.7,    2.0,    3.1,  999.0,  999.0,  999.0,  999.0,  999.0,   23.6,  999.0,   13.6,   15.7,   16.5,  999.0,  999.0,  999.0,   13.2,   14.9,  999.0
2000/05/12 23:10,   -2.8,  999.0,  999.0,  999.0,  999.0,  999.0,  999.0,  999.0,    0.7,  999.0,    2.6,    3.5,    0.5,    2.7,  999.0,    2.9,  999.0,    8.6,  999.0,  999.0,  999.0,   23.7,  999.0,  999.0,  999.0,  999.0,  999.0,  999.0,   14.3,   14.4,   14.3,  999.0
2000/05/12 23:20,  999.0,  999.0,  999.0,  999.0,    3.4,    2.9,    1.9,  999.0,    1.4,    3.0,    1.1,    1.7,    3.0,  999.0,    2.6,    2.7,  999.0,  999.0,   23.3,  999.0,  999.0,   21.8,  999.0,  999.0,  999.0,   17.3,  999.0,  999.0,  999.0,   13.1,   15.4,  999.0
2000/05/12 23:30,  999.0,  999.0,  999.0,  999.0,  999.0,  999.0,  999.0,   -1.6,  999.0,  999.0,  999.0,    3.1,    1.9,    4.1,    0.3,    3.4,    2.9,   14.8,  999.0,  999.0,   22.5,   21.2,   18.9,  999.0,  999.0,  999.0,  999.0,  999.0,  999.0,   13.8,   15.4,  999.0
2000/05/12 23:40,   -1.3,   -0.0,  999.0,  999.0,  999.0,  999.0,  999.0,  999.0,  999.0,  999.0,    2.3,    4.4,    2.0,    2.7,    3.4,    3.2,    3.0,    2.4,    4.4,  999.0,   25.0,  999.0,   18.8,   27.5,  999.0,  999.0,  999.0,  999.0,  999.0,   12.4,   12.8,  999.0
2000/05/12 23:50,   -2.1,   -2.8,  999.0,   -1.7,  999.0,  999.0,  999.0,  999.0,  999.0,    0.9,    2.0,    5.0,    0.5,    3.1,    3.9,    1.4,    2.8,    2.1,    7.2,   14.4,   20.0,   16.2,   19.7,   15.4,  999.0,  999.0,  999.0,  999.0,  999.0,  999.0,   13.3,  999.0
